Total_Precipitation_Accumulation
0.10 0.20 0.23 0.23 0.22 0.18 0.14 0.12 0.21 0.22 0.29 0.34 0.29 0.33 0.39 0.52 0.54 0.56 0.44 0.31 0.30 0.28 0.34 0.41 0.41 0.47 0.46 0.42 0.37 0.44 0.57 0.63 0.71 0.65 0.54 0.50 0.46 0.41 0.39 0.39 0.40 0.45 0.50 0.54
0.12 0.16 0.21 0.26 0.24 0.18 0.13 0.11 0.14 0.19 0.25 0.27 0.28 0.37 0.39 0.40 0.37 0.37 0.32 0.23 0.21 0.26 0.30 0.29 0.28 0.29 0.25 0.25 0.29 0.35 0.42 0.49 0.58 0.65 0.56 0.46 0.42 0.40 0.38 0.40 0.45 0.50 0.54 0.58
0.19 0.19 0.21 0.30 0.30 0.22 0.14 0.13 0.18 0.24 0.29 0.27 0.24 0.28 0.32 0.33 0.33 0.35 0.33 0.21 0.17 0.22 0.26 0.21 0.20 0.20 0.21 0.24 0.32 0.40 0.49 0.57 0.65 0.69 0.66 0.58 0.48 0.48 0.47 0.50 0.54 0.55 0.54 0.53
0.25 0.32 0.42 0.30 0.25 0.25 0.25 0.23 0.24 0.31 0.28 0.30 0.32 0.37 0.39 0.41 0.37 0.31 0.27 0.21 0.16 0.17 0.19 0.21 0.20 0.22 0.26 0.32 0.42 0.49 0.57 0.67 0.75 0.79 0.75 0.72 0.70 0.71 0.70 0.70 0.70 0.68 0.64 0.60
0.39 0.45 0.41 0.36 0.25 0.28 0.34 0.46 0.44 0.49 0.45 0.40 0.41 0.41 0.40 0.36 0.32 0.31 0.24 0.22 0.20 0.18 0.20 0.23 0.24 0.27 0.37 0.47 0.55 0.65 0.72 0.79 0.85 0.93 0.94 0.95 0.97 0.95 0.96 0.94 0.84 0.76 0.70 0.71
0.49 0.58 0.56 0.49 0.35 0.33 0.44 0.80 0.64 0.57 0.55 0.48 0.48 0.50 0.48 0.43 0.39 0.35 0.28 0.25 0.24 0.22 0.25 0.30 0.36 0.41 0.53 0.62 0.69 0.78 0.86 1.00 1.12 1.23 1.24 1.23 1.27 1.25 1.19 1.14 1.04 1.01 0.93 0.91
0.62 0.63 0.64 0.53 0.46 0.45 0.78 1.05 0.74 0.58 0.55 0.58 0.65 0.61 0.55 0.45 0.44 0.39 0.31 0.30 0.27 0.26 0.32 0.41 0.49 0.60 0.74 0.87 0.97 0.93 0.98 1.13 1.31 1.41 1.47 1.49 1.54 1.54 1.47 1.42 1.39 1.33 1.22 1.17
0.73 0.83 0.89 0.65 0.61 0.85 0.99 0.83 0.82 0.76 0.70 0.67 0.64 0.55 0.46 0.42 0.41 0.38 0.34 0.36 0.35 0.35 0.42 0.51 0.63 0.73 0.85 0.92 0.93 0.96 1.03 1.16 1.28 1.38 1.40 1.47 1.62 1.65 1.65 1.63 1.56 1.50 1.44 1.30
0.87 0.94 0.83 0.68 0.74 0.83 0.87 0.89 0.85 0.80 0.73 0.64 0.62 0.54 0.43 0.35 0.34 0.35 0.33 0.35 0.36 0.40 0.53 0.65 0.79 0.88 0.96 0.93 1.00 1.02 1.08 1.22 1.36 1.43 1.47 1.53 1.56 1.55 1.58 1.61 1.58 1.50 1.48 1.40
0.95 0.98 0.91 0.80 0.68 0.62 0.66 0.70 0.70 0.67 0.68 0.67 0.65 0.58 0.48 0.37 0.31 0.31 0.31 0.29 0.31 0.36 0.47 0.58 0.69 0.78 0.90 0.99 1.07 1.12 1.18 1.25 1.36 1.47 1.49 1.49 1.58 1.65 1.69 1.76 1.81 1.73 1.64 1.56
1.04 0.97 0.81 0.88 0.87 0.77 0.77 0.81 0.78 0.68 0.66 0.67 0.63 0.58 0.47 0.41 0.36 0.32 0.30 0.29 0.31 0.37 0.44 0.51 0.58 0.66 0.74 0.83 0.97 1.07 1.14 1.18 1.24 1.31 1.40 1.48 1.54 1.60 1.57 1.61 1.58 1.54 1.49 1.49
1.10 1.01 0.95 0.96 0.88 0.78 0.80 0.77 0.80 0.82 0.81 0.64 0.53 0.55 0.51 0.44 0.38 0.36 0.35 0.35 0.38 0.40 0.42 0.47 0.54 0.66 0.74 0.83 0.98 1.13 1.23 1.25 1.19 1.16 1.23 1.29 1.36 1.35 1.28 1.21 1.18 1.12 1.11 1.11
0.87 0.78 0.79 0.82 0.78 0.64 0.60 0.61 0.60 0.62 0.62 0.57 0.50 0.46 0.44 0.43 0.41 0.38 0.36 0.36 0.40 0.42 0.43 0.46 0.51 0.61 0.69 0.80 0.93 1.06 1.14 1.16 1.14 1.13 1.19 1.22 1.25 1.29 1.32 1.23 1.10 1.01 0.96 0.93
0.67 0.61 0.59 0.58 0.59 0.59 0.56 0.53 0.46 0.42 0.42 0.42 0.45 0.45 0.41 0.42 0.43 0.42 0.41 0.40 0.38 0.38 0.39 0.42 0.49 0.55 0.63 0.74 0.85 0.94 1.00 1.03 1.06 1.09 1.14 1.22 1.27 1.34 1.44 1.52 1.45 1.27 1.06 0.95
0.64 0.58 0.55 0.45 0.43 0.45 0.43 0.38 0.34 0.32 0.36 0.40 0.37 0.34 0.29 0.29 0.30 0.30 0.31 0.32 0.34 0.36 0.40 0.44 0.50 0.56 0.64 0.77 0.87 0.89 0.91 0.92 0.93 0.96 1.00 1.06 1.09 1.16 1.26 1.35 1.39 1.29 1.14 1.00
0.68 0.62 0.52 0.43 0.45 0.47 0.42 0.39 0.34 0.31 0.31 0.35 0.37 0.33 0.26 0.24 0.25 0.26 0.26 0.30 0.40 0.45 0.49 0.55 0.60 0.63 0.72 0.81 0.86 0.87 0.83 0.81 0.82 0.85 0.85 0.84 0.87 0.94 1.04 1.14 1.19 1.13 1.04 0.94
0.69 0.66 0.55 0.48 0.45 0.42 0.40 0.38 0.33 0.30 0.26 0.26 0.26 0.23 0.22 0.24 0.27 0.29 0.32 0.34 0.39 0.44 0.50 0.57 0.60 0.63 0.76 0.86 0.89 0.88 0.81 0.74 0.70 0.72 0.73 0.74 0.80 0.85 0.89 0.92 0.97 0.94 0.87 0.75
0.62 0.60 0.54 0.49 0.44 0.39 0.38 0.35 0.33 0.33 0.29 0.26 0.23 0.22 0.24 0.30 0.40 0.46 0.46 0.46 0.46 0.46 0.46 0.51 0.56 0.63 0.75 0.86 0.90 0.89 0.81 0.71 0.64 0.62 0.65 0.67 0.69 0.76 0.82 0.82 0.80 0.77 0.71 0.58
0.53 0.53 0.53 0.52 0.52 0.52 0.49 0.42 0.37 0.34 0.31 0.28 0.28 0.29 0.32 0.39 0.50 0.55 0.54 0.57 0.65 0.71 0.63 0.55 0.56 0.56 0.65 0.81 0.93 0.95 0.84 0.71 0.61 0.57 0.58 0.60 0.63 0.72 0.79 0.76 0.69 0.64 0.59 0.55
0.58 0.61 0.64 0.64 0.64 0.64 0.59 0.52 0.45 0.39 0.33 0.30 0.31 0.33 0.38 0.45 0.55 0.61 0.62 0.61 0.66 0.76 0.77 0.71 0.60 0.54 0.58 0.73 0.91 0.89 0.81 0.72 0.63 0.54 0.55 0.60 0.63 0.68 0.72 0.72 0.66 0.60 0.57 0.55
0.64 0.69 0.71 0.66 0.62 0.59 0.55 0.52 0.50 0.46 0.40 0.37 0.40 0.46 0.52 0.55 0.57 0.65 0.75 0.70 0.61 0.67 0.76 0.75 0.66 0.57 0.56 0.67 0.84 0.87 0.80 0.72 0.62 0.52 0.51 0.55 0.58 0.63 0.67 0.68 0.65 0.59 0.58 0.59
0.73 0.78 0.74 0.65 0.60 0.56 0.50 0.46 0.44 0.42 0.40 0.41 0.45 0.55 0.70 0.77 0.74 0.71 0.66 0.66 0.65 0.74 0.79 0.73 0.65 0.56 0.50 0.56 0.66 0.76 0.72 0.66 0.60 0.53 0.46 0.47 0.54 0.61 0.63 0.62 0.60 0.57 0.56 0.58
0.62 0.64 0.61 0.54 0.47 0.40 0.32 0.31 0.33 0.34 0.36 0.41 0.50 0.66 0.87 0.91 0.89 0.93 0.78 0.60 0.61 0.71 0.72 0.68 0.59 0.50 0.44 0.46 0.53 0.61 0.62 0.61 0.56 0.49 0.41 0.42 0.45 0.50 0.53 0.50 0.51 0.53 0.49 0.45
0.36 0.35 0.32 0.30 0.28 0.27 0.26 0.25 0.27 0.28 0.33 0.39 0.45 0.60 0.86 1.02 0.91 0.73 0.68 0.65 0.64 0.61 0.59 0.58 0.52 0.45 0.43 0.42 0.44 0.51 0.56 0.58 0.54 0.48 0.42 0.42 0.43 0.44 0.47 0.46 0.45 0.42 0.37 0.37
0.27 0.23 0.20 0.22 0.26 0.29 0.30 0.32 0.34 0.36 0.43 0.49 0.49 0.54 0.69 0.92 0.96 0.73 0.59 0.56 0.57 0.55 0.52 0.53 0.55 0.54 0.46 0.40 0.39 0.46 0.52 0.55 0.55 0.50 0.45 0.46 0.43 0.45 0.46 0.44 0.43 0.40 0.39 0.40
0.23 0.21 0.21 0.22 0.25 0.31 0.38 0.48 0.58 0.62 0.73 0.84 0.79 0.72 0.78 0.83 0.78 0.68 0.58 0.51 0.49 0.51 0.49 0.52 0.58 0.60 0.52 0.44 0.44 0.48 0.51 0.56 0.56 0.53 0.50 0.48 0.44 0.43 0.44 0.43 0.43 0.42 0.39 0.36
0.25 0.22 0.23 0.26 0.30 0.37 0.50 0.67 0.82 0.90 1.02 1.20 1.23 1.03 0.96 0.95 0.84 0.74 0.66 0.60 0.57 0.56 0.53 0.51 0.51 0.53 0.54 0.51 0.48 0.47 0.52 0.59 0.60 0.59 0.56 0.49 0.44 0.42 0.41 0.38 0.36 0.36 0.33 0.30